Погода в Гробе

Чехия     50°39′34″N   13°43′31″E
темп.,
°C
ветер,
м/с
пор.,
м/с
влажн.,
%
обл.,
%
осадки,
мм/ч
давл.,
гПа
погр.,
м
23 октября, сб
сб2323:00+5зсз6139499 4.9 10181311
02:00+3з613883 5.4 1021708
05:00+2з61387100 0.0 1022589
08:00+2з5128820 0.0 1024509
11:00+5зсз6107520 0.1 1026986
14:00+7сз696994 0.3 10261487
17:00+6сз597647 0.3 1028933
20:00+3з2291100 0.4 103025
24 октября, вс
вс2423:00+2з118999 0.0 103112
02:00+2зюз11885 0.0 103110
05:00+2ю22905 0.0 103116
08:00+1ю239347 0.0 103245
11:00+5ююв367363 0.0 1031397
14:00+8ююв465993 0.0 1029515
17:00+7ююв485999 0.0 1027320
20:00+4ююв47676 0.0 1027141
25 октября, пн
пн2523:00+3ююв510705 0.0 1027229
02:00+2ююв58785 0.0 1026185
05:00+1ю46865 0.0 1026123
08:000ю46922 0.0 102599
11:00+5ю45680 0.0 1024240
14:00+9ю34560 0.0 1023357
17:00+7ю2468100 0.0 102396
20:00+5ю2374100 0.0 102340
26 октября, вт
вт2623:00+5ююз227766 0.0 102330
02:00+4ююз2277100 0.0 102324
05:00+4ююз2281100 0.0 102329
08:00+4ююз2383100 0.0 102343
11:00+8ююз237098 0.0 1023236
14:00+11зюз246799 0.1 1022759
17:00+10зюз137863 0.4 102295
20:00+7з22915 0.6 102416
27 октября, ср
ср2723:00+6з229224 0.0 102515
02:00+8з2386100 0.0 102570
05:00+6зюз119088 0.0 102511
08:00+5юз219195 0.0 102612
11:00+10юз237341 0.0 1026424
14:00+12зюз12596 0.0 1025996
17:00+10ююз017245 0.0 102512
20:00+7юз11856 0.0 102710